Regional Weather Roundup
Issued by NWS Nashville, TN

Home | Current Version | Previous Version | Text Only | Print | Product List | Glossary On
Versions: 1 2 3 4 5 6 7 8 9 10 11 12 13 14 15 16 17 18 19 20 21 22 23 24 25 26 27 28 29 30 31 32 33 34 35 36 37 38 39 40 41 42 43 44 45 46 47 48 49 50
000
ASUS44 KOHX 240510
RWROHX
MIDDLE TENNESSEE HOURLY WEATHER ROUNDUP
NATIONAL WEATHER SERVICE NASHVILLE TN
1200 AM CDT THU AUG 24 2017

NOTE: "FAIR" INDICATES FEW OR NO CLOUDS BELOW 12,000 FEET WITH
NO SIGNIFICANT WEATHER AND/OR OBSTRUCTIONS TO VISIBILITY.

* THESE REPORTS ARE NOT UNDER NWS QUALITY CONTROL AND MAY NOT
  REPORT WEATHER SUCH AS PRECIPITATION AND FOG.


TNZ005>011-023>034-057-059-062>066-078-080-240600
...NORTHERN MIDDLE TENNESSEE...

CITY           SKY/WX    TMP DP  RH WIND       PRES   REMARKS
CLARKSVILLE    CLEAR     63  57  81 N6        30.03R
CROSSVILLE     MOCLDY    63  57  81 N3        30.04S
GALLATIN       MOCLDY    68  59  73 N6        30.03S
NASHVILLE      MOCLDY    69  61  75 CALM      30.02R
PORTLAND       CLEAR     64  61  88 CALM      30.02R
SMYRNA         PTCLDY    67  62  84 NW5       30.02R
SPARTA         CLEAR     61  61 100 CALM      30.00S
SPRINGFIELD    MOCLDY    64  59  82 N5        30.01R
WEST NASHVILLE CLEAR     66  61  82 CALM      30.00R
$$
TNZ056-058-060-061-075>077-079-093>097-240600
...SOUTHERN MIDDLE TENNESSEE...

CITY           SKY/WX    TMP DP  RH WIND       PRES   REMARKS
COLUMBIA       CLEAR     64  64 100 CALM      29.99S
FAYETTEVILLE   CLEAR     66  61  82 N7        29.99S
MCMINNVILLE    CLEAR     63  63 100 CALM      30.01S
PULASKI        PTCLDY    64  63  94 CALM      30.00S
SHELBYVILLE    CLEAR     63  63 100 CALM      30.00S
TULLAHOMA      CLEAR     63  57  82 CALM      30.02S
$$


...KEY TO REMARKS...
VSB - VISIBILITY IN MILES
WCI - WIND CHILL INDEX
HX  - HEAT INDEX




USA.gov is the U.S. government's official web portal to all federal, state and local government web resources and services.